Vorticity
16 15 14 13 13 12 12 11 10 9 8 7 8 9 12 15 17 16 15 14 14 15 15 13 12 11 9 7 6 6 6 6 6 6 6 5 5 4 4 4 5 7 10 11 6 3 1 -0 1 6 11 16 13 9 6 5 -4 -9 -7 4 9 10 8 6 6 7 9 12 13
14 14 13 13 13 13 12 12 10 10 9 8 8 8 9 11 14 16 17 16 14 13 12 13 13 12 10 8 6 6 5 5 5 5 5 4 4 4 4 4 3 7 12 16 7 0 -3 -4 -2 2 7 13 15 13 9 6 -0 -2 -0 6 7 7 5 4 5 6 9 12 14
12 12 12 12 12 12 12 12 11 10 10 9 8 8 8 10 12 14 16 18 16 14 11 10 11 12 10 8 6 5 5 5 6 6 5 3 4 4 4 3 2 7 14 18 9 2 -2 -5 -4 -1 4 10 17 18 14 9 5 3 3 5 6 6 5 4 5 6 8 11 14
11 10 10 10 10 11 12 13 12 12 11 10 9 8 8 9 11 13 15 17 18 16 13 10 11 11 9 7 5 4 4 5 5 3 3 4 5 4 2 1 1 6 12 15 9 4 -1 -4 -4 -2 2 7 14 16 15 10 6 4 4 4 6 6 6 5 6 6 8 10 14
11 11 11 11 11 11 12 13 14 14 13 11 9 8 8 8 10 11 13 15 17 18 16 13 14 14 12 6 5 4 4 3 2 2 3 7 6 3 0 -1 -0 2 4 7 5 2 -1 -3 -2 -2 -0 4 9 12 12 9 6 4 3 3 4 5 6 6 7 7 8 9 14
10 12 13 13 12 12 12 13 14 14 14 13 10 9 8 8 9 10 12 13 15 17 17 16 12 15 18 18 10 6 4 3 1 1 3 6 4 2 0 2 4 2 1 3 5 3 1 1 0 -1 -1 1 6 8 9 8 7 5 3 2 2 4 5 7 7 7 8 10 16
8 10 12 13 13 13 12 12 13 14 14 13 11 9 8 8 8 9 10 12 13 15 16 15 12 11 15 27 22 13 6 6 4 3 2 3 3 2 4 11 10 6 3 3 4 5 5 6 6 4 2 3 6 8 8 8 8 7 5 3 2 3 6 7 7 7 9 12 17
6 8 10 11 12 12 11 11 12 13 13 13 12 10 9 8 8 9 10 12 13 13 14 15 15 12 10 12 22 18 10 6 8 6 2 -1 0 3 8 16 13 10 8 6 5 5 6 8 8 7 7 8 9 10 9 10 10 9 6 3 2 4 6 6 6 7 9 13 16
6 6 8 9 10 10 10 10 10 11 12 13 12 11 10 8 8 8 9 10 11 12 13 13 15 15 13 9 9 10 12 10 10 7 2 -3 -0 4 9 12 12 12 11 10 7 5 5 7 7 8 8 9 11 11 11 12 10 8 6 4 4 5 6 6 6 7 10 15 14
9 8 7 8 8 9 9 10 10 11 11 12 13 13 12 10 8 8 8 8 9 10 11 11 13 14 16 17 13 9 6 6 9 11 11 7 7 8 9 10 14 16 14 10 6 6 6 6 6 7 8 10 12 13 13 13 11 9 6 5 6 5 5 4 5 8 12 17 12
14 11 10 9 9 9 10 10 10 10 10 10 11 12 12 11 9 8 7 7 7 7 7 8 10 12 14 18 19 16 9 0 2 12 20 21 17 13 11 12 15 14 11 7 6 6 6 7 6 7 9 12 14 15 15 14 11 8 6 5 5 4 4 4 6 10 13 14 10
17 15 12 11 10 10 10 10 10 10 10 9 10 11 12 12 10 9 7 6 6 5 5 6 8 10 12 15 17 16 12 3 2 8 14 16 16 15 15 15 14 11 8 6 6 7 6 6 6 8 10 13 16 17 16 13 10 7 5 4 5 5 6 7 9 11 12 11 11
17 17 14 12 11 10 10 10 10 10 10 8 8 9 10 11 11 10 8 7 6 6 6 6 6 8 10 11 13 13 12 7 7 7 9 11 16 19 19 14 11 8 6 5 6 6 6 6 7 9 12 15 17 17 15 12 9 7 6 6 6 7 8 10 10 10 9 10 14
16 18 16 14 12 11 11 11 11 11 10 9 8 8 9 10 10 10 9 9 8 7 6 6 5 6 6 8 10 11 12 11 8 7 8 13 19 22 20 14 10 7 6 5 5 5 6 7 9 11 14 16 16 15 13 11 9 9 9 8 7 7 9 10 8 7 9 13 18
16 19 18 14 12 10 10 11 12 11 10 9 7 6 7 8 9 10 9 9 9 8 8 7 6 5 5 5 8 10 11 10 6 6 10 18 22 23 21 16 8 6 5 6 5 6 7 9 11 13 14 16 14 12 11 10 10 10 10 8 7 8 9 8 6 9 13 18 18
21 22 19 13 11 10 10 11 12 12 11 9 7 6 5 7 8 8 8 8 8 8 8 8 7 7 6 6 8 9 9 7 4 7 13 21 24 24 22 15 7 4 5 5 6 7 8 10 12 13 14 15 14 12 10 10 10 10 8 6 8 8 8 6 9 13 17 18 14
26 24 19 12 10 9 10 11 11 11 11 10 8 6 6 6 7 7 7 7 7 7 7 8 9 9 9 8 8 8 8 6 4 7 14 23 31 32 27 14 6 4 5 6 8 9 10 12 13 15 16 16 14 13 11 11 10 7 6 5 6 6 6 8 12 14 15 13 9
28 24 17 11 10 10 11 11 12 12 11 10 9 8 7 7 7 7 6 6 6 6 6 6 7 8 9 9 8 8 7 5 4 7 16 27 36 35 25 10 6 6 7 8 10 11 12 13 14 16 17 16 14 13 11 10 6 4 3 4 5 6 8 11 13 13 10 7 6
27 21 15 10 10 10 12 12 12 13 12 12 11 10 9 9 9 8 7 6 6 6 6 5 5 5 6 6 7 8 7 5 6 11 19 28 27 21 13 6 6 7 9 11 12 13 14 15 16 16 16 14 13 12 10 6 2 1 2 4 6 8 10 12 12 10 8 6 6
23 18 13 10 10 11 12 12 12 13 13 13 12 12 11 11 10 9 9 8 7 7 7 6 6 5 6 7 8 9 8 7 11 17 21 22 14 8 5 4 6 9 11 14 15 16 17 17 16 16 14 13 12 9 6 1 -1 1 4 7 9 10 11 11 10 9 8 8 8
20 15 11 8 8 9 10 11 11 11 12 12 12 12 12 11 11 10 10 9 8 8 7 7 9 10 12 12 10 9 9 12 18 21 21 14 7 4 4 6 8 11 14 16 17 17 17 16 15 14 13 12 9 5 0 -3 -1 3 7 10 12 13 12 11 10 9 8 8 6
19 15 11 7 6 6 6 8 9 9 10 10 10 11 11 11 11 10 10 9 8 8 10 12 15 16 15 11 10 12 16 22 26 24 18 9 4 4 5 7 11 14 16 17 16 16 14 13 13 12 11 10 5 0 -3 -2 2 7 11 14 15 14 13 12 10 9 7 5 2
19 16 12 9 6 5 4 5 6 7 8 9 10 10 11 11 11 10 10 9 10 13 16 18 17 14 11 10 14 19 24 29 27 21 13 7 6 6 8 10 14 16 17 16 15 13 12 11 12 11 9 5 -0 -2 -2 2 8 12 15 16 16 14 12 10 8 6 3 1 -0
19 16 14 11 10 8 7 7 7 8 8 9 10 11 11 11 11 11 11 13 16 17 17 14 9 8 10 16 22 26 27 26 20 15 11 9 8 9 11 14 15 16 15 14 13 12 11 11 11 9 6 1 -2 -0 4 9 13 16 17 15 13 10 8 5 3 1 0 -0 1
17 16 14 13 12 11 11 11 10 10 10 10 11 11 11 12 13 14 16 18 17 13 9 5 7 12 19 27 28 27 23 18 13 10 9 9 10 11 13 14 14 14 13 12 11 12 12 13 10 7 3 -0 2 5 10 15 17 17 15 12 9 6 4 2 1 0 1 2 3
15 14 14 13 12 11 11 12 12 12 12 12 12 12 13 15 17 19 19 15 9 5 5 9 16 23 28 32 28 22 16 10 8 6 6 8 10 12 14 14 13 12 12 12 12 13 14 13 10 6 4 3 7 11 15 18 17 14 11 8 6 4 2 2 2 2 3 4 4
12 13 13 13 12 12 12 13 14 15 15 15 16 17 19 21 20 17 11 5 4 8 14 22 26 27 27 24 18 12 8 6 6 6 8 11 13 14 14 13 12 13 13 15 16 16 15 12 9 7 7 10 13 16 16 15 12 9 7 4 3 2 2 3 4 4 4 4 5
13 14 15 15 15 16 16 18 18 19 20 20 21 21 20 18 12 7 4 6 12 19 24 25 22 19 15 11 8 5 4 5 8 10 13 15 16 15 13 11 12 13 15 16 17 16 14 11 11 12 13 16 16 16 13 10 7 4 3 2 2 3 4 4 4 4 5 5 6
16 18 18 18 18 20 21 23 24 24 23 22 18 14 9 4 3 5 10 16 21 21 19 15 13 10 8 7 6 7 9 11 13 14 16 17 15 13 10 9 11 13 15 16 16 15 14 14 14 15 15 15 13 10 7 4 2 2 2 3 4 4 4 4 4 5 6 7 8
16 16 16 16 16 17 18 19 17 15 12 8 4 2 3 6 11 16 19 19 16 13 11 10 9 8 8 10 12 13 15 16 17 17 16 14 11 9 9 11 14 16 16 16 16 16 16 15 14 13 11 8 6 3 2 1 2 3 4 4 5 5 5 5 5 6 7 9 10
11 11 11 12 12 10 8 5 2 1 1 1 4 9 14 19 20 19 16 13 11 10 9 9 9 11 13 15 16 18 18 18 18 17 15 12 9 9 11 15 17 18 18 17 16 15 14 12 10 7 4 2 1 1 2 3 4 4 4 4 4 4 5 6 7 8 10 11 12
13 13 13 12 12 11 8 5 4 5 8 11 15 18 20 18 16 13 12 10 10 9 10 11 13 16 17 18 18 18 18 17 16 14 13 12 12 13 16 18 20 19 18 16 14 11 8 5 3 2 1 1 2 3 4 5 5 5 4 4 5 6 7 8 10 11 12 12 10
23 23 22 22 24 24 23 21 20 20 18 18 17 16 14 11 8 8 10 10 10 11 12 13 16 17 17 17 16 14 13 12 12 12 13 15 17 19 20 21 20 18 15 12 8 5 2 0 1 1 2 4 4 5 5 5 4 4 5 6 7 8 10 11 11 11 10 9 9
33 36 36 34 32 30 26 20 18 15 13 12 11 10 10 8 8 9 10 12 12 13 13 14 14 14 13 11 10 10 9 10 12 14 18 21 22 23 22 19 16 13 9 6 3 2 1 2 3 4 4 5 5 5 4 4 5 6 7 8 9 10 11 11 10 9 8 8 8
36 39 38 33 23 14 6 3 2 3 5 8 9 8 6 7 10 11 12 13 13 13 13 13 12 10 9 8 8 10 12 15 19 22 24 24 23 21 17 13 9 6 4 3 2 2 3 4 4 5 5 4 4 5 5 6 7 8 9 10 10 10 10 9 8 8 8 8 8
24 27 28 24 16 8 4 3 6 8 11 13 12 9 7 8 11 13 14 14 14 13 12 11 10 8 8 9 12 16 20 23 24 24 23 21 17 13 9 6 4 3 2 2 3 4 4 5 5 4 4 5 5 6 7 8 9 9 10 10 9 9 8 8 8 8 8 8 8
18 22 25 25 23 21 20 21 21 20 19 17 15 13 13 13 15 17 17 15 14 12 11 11 11 13 16 20 23 25 26 25 23 20 16 12 9 6 3 2 2 2 3 4 4 5 5 4 5 5 5 6 7 8 8 9 9 9 9 9 8 8 8 8 8 8 8 8 8
23 25 26 26 25 24 24 23 21 19 18 18 18 19 19 20 20 19 18 16 15 15 15 16 20 25 29 30 29 27 24 20 16 11 7 4 3 2 2 2 3 4 5 5 5 5 5 5 6 6 7 8 8 9 9 8 8 8 8 8 8 8 8 8 8 8 8 8 8
24 23 22 21 21 20 20 19 19 20 21 24 26 26 25 24 21 20 20 20 21 23 25 27 31 32 30 26 22 18 14 10 7 4 2 2 2 3 4 4 4 5 5 5 5 5 6 7 7 8 8 8 8 8 8 8 8 8 9 9 9 8 8 8 8 8 7 8 8
19 17 16 16 18 19 20 21 22 24 27 30 31 30 28 26 24 24 25 27 28 28 28 29 27 23 18 14 10 7 5 3 2 2 3 3 4 4 4 4 4 5 5 5 6 7 7 8 8 8 9 9 9 9 8 8 8 9 9 9 8 8 7 7 7 7 7 7 7
18 18 18 20 22 24 25 26 27 28 29 31 31 30 29 28 28 29 29 29 27 24 22 18 14 10 7 5 4 3 3 3 3 4 4 4 4 4 5 5 5 6 6 7 8 8 8 8 9 9 9 9 9 9 8 8 8 8 8 8 8 7 7 7 7 7 8 7 7
Height
3056 3056 3057 3059 3060 3061 3062 3064 3065 3066 3067 3068 3069 3070 3070 3071 3071 3072 3073 3073 3074 3076 3077 3079 3080 3081 3082 3083 3084 3085 3086 3087 3088 3088 3089 3088 3088 3088 3088 3088 3088 3088 3088 3086 3087 3087 3088 3089 3090 3091 3091 3091 3090 3090 3090 3090 3090 3090 3090 3090 3090 3090 3090 3090 3090 3089 3088 3087 3086
3054 3054 3055 3056 3057 3059 3060 3061 3062 3064 3065 3066 3067 3068 3068 3069 3069 3070 3070 3071 3071 3073 3074 3076 3077 3078 3079 3080 3081 3082 3083 3084 3085 3085 3085 3084 3085 3085 3085 3085 3085 3086 3086 3084 3085 3085 3086 3087 3088 3088 3089 3089 3088 3088 3088 3089 3089 3089 3089 3088 3088 3088 3088 3088 3087 3087 3086 3085 3084
3051 3051 3052 3053 3054 3056 3057 3058 3060 3061 3062 3063 3065 3065 3066 3066 3066 3067 3067 3068 3069 3070 3071 3073 3074 3075 3076 3076 3077 3078 3079 3080 3081 3081 3080 3080 3081 3082 3082 3083 3083 3084 3084 3082 3083 3083 3084 3085 3085 3085 3086 3086 3086 3086 3086 3086 3086 3086 3086 3086 3086 3085 3085 3085 3085 3085 3084 3083 3082
3049 3049 3050 3050 3052 3053 3055 3056 3057 3059 3060 3061 3062 3063 3063 3064 3064 3065 3065 3065 3066 3067 3068 3070 3070 3072 3073 3074 3075 3075 3076 3077 3078 3077 3077 3078 3079 3080 3080 3080 3081 3081 3081 3080 3080 3081 3081 3082 3082 3083 3083 3083 3083 3084 3084 3084 3084 3084 3084 3083 3083 3083 3083 3083 3083 3082 3081 3080 3079
3047 3047 3048 3049 3050 3051 3052 3054 3055 3056 3057 3058 3059 3060 3060 3061 3061 3062 3062 3063 3064 3065 3065 3066 3067 3067 3069 3071 3071 3072 3074 3074 3075 3075 3075 3076 3077 3077 3077 3077 3078 3077 3076 3076 3077 3078 3079 3080 3080 3080 3080 3081 3081 3081 3081 3082 3081 3081 3081 3081 3081 3081 3081 3081 3080 3079 3078 3077 3076
3045 3045 3046 3047 3048 3049 3050 3051 3052 3054 3055 3055 3056 3056 3057 3058 3059 3060 3060 3060 3061 3062 3063 3063 3064 3064 3065 3066 3067 3069 3070 3071 3071 3071 3072 3073 3073 3073 3074 3074 3073 3073 3074 3075 3075 3075 3076 3077 3077 3078 3078 3079 3079 3079 3079 3079 3079 3079 3079 3079 3079 3079 3079 3078 3077 3076 3075 3075 3073
3043 3043 3044 3045 3046 3047 3048 3049 3050 3051 3051 3052 3053 3054 3055 3055 3056 3057 3058 3058 3059 3060 3060 3060 3061 3062 3062 3062 3063 3064 3066 3068 3069 3069 3069 3069 3070 3071 3071 3070 3069 3070 3071 3073 3073 3073 3074 3074 3075 3075 3076 3076 3076 3076 3076 3076 3076 3076 3076 3076 3076 3076 3076 3075 3075 3074 3073 3071 3070
3041 3041 3042 3043 3044 3045 3045 3046 3047 3048 3048 3049 3050 3051 3052 3053 3054 3055 3055 3056 3056 3057 3058 3058 3059 3060 3060 3060 3060 3060 3062 3064 3065 3066 3067 3066 3067 3068 3068 3067 3067 3068 3069 3070 3070 3071 3072 3072 3072 3073 3074 3074 3074 3074 3074 3074 3074 3074 3074 3074 3074 3074 3073 3073 3072 3071 3070 3069 3068
3039 3039 3040 3040 3041 3042 3043 3044 3044 3045 3045 3047 3048 3049 3050 3050 3051 3052 3053 3053 3054 3055 3056 3056 3057 3058 3058 3059 3058 3059 3060 3061 3062 3064 3065 3064 3065 3065 3065 3065 3066 3066 3066 3068 3069 3069 3070 3070 3070 3070 3070 3071 3071 3071 3071 3071 3071 3071 3072 3072 3072 3071 3070 3070 3069 3068 3067 3066 3065
3037 3037 3038 3038 3039 3040 3040 3041 3041 3042 3043 3044 3045 3046 3047 3048 3048 3049 3050 3051 3052 3053 3054 3054 3055 3056 3056 3057 3057 3057 3057 3058 3059 3060 3060 3060 3061 3062 3063 3064 3064 3064 3064 3065 3066 3067 3067 3067 3067 3067 3068 3068 3068 3068 3068 3069 3069 3069 3069 3069 3069 3068 3067 3067 3066 3065 3065 3063 3061
3035 3035 3035 3036 3036 3037 3038 3038 3039 3040 3041 3042 3042 3043 3044 3045 3046 3047 3048 3049 3050 3050 3051 3052 3053 3054 3054 3055 3055 3055 3056 3056 3056 3057 3057 3057 3058 3060 3061 3061 3061 3061 3062 3063 3063 3064 3064 3064 3065 3065 3065 3065 3066 3066 3066 3066 3066 3067 3066 3066 3065 3065 3064 3064 3064 3063 3062 3061 3060
3032 3033 3033 3033 3034 3035 3035 3036 3037 3037 3038 3039 3040 3040 3041 3042 3043 3045 3046 3046 3047 3048 3050 3050 3051 3052 3052 3052 3053 3053 3054 3055 3055 3055 3055 3055 3056 3057 3058 3058 3058 3059 3059 3060 3060 3061 3061 3061 3062 3062 3063 3063 3063 3063 3063 3064 3064 3064 3063 3063 3062 3061 3061 3061 3060 3060 3060 3059 3059
3030 3030 3030 3031 3031 3032 3033 3034 3034 3035 3036 3036 3037 3038 3039 3040 3041 3042 3043 3044 3045 3046 3047 3048 3049 3050 3050 3050 3050 3050 3052 3053 3053 3054 3054 3054 3054 3054 3055 3055 3055 3056 3057 3057 3058 3058 3059 3059 3059 3060 3060 3060 3060 3060 3061 3061 3061 3061 3060 3060 3059 3058 3058 3058 3058 3058 3057 3057 3056
3027 3027 3028 3028 3029 3030 3030 3031 3032 3033 3033 3034 3035 3035 3036 3038 3039 3040 3041 3042 3043 3044 3045 3046 3047 3047 3047 3047 3047 3048 3049 3050 3050 3051 3052 3052 3052 3052 3052 3052 3052 3053 3054 3055 3055 3056 3056 3056 3057 3057 3057 3057 3057 3058 3058 3058 3058 3058 3057 3056 3056 3056 3056 3055 3055 3055 3055 3055 3054
3025 3025 3025 3026 3026 3027 3028 3029 3030 3030 3031 3031 3032 3033 3034 3035 3036 3038 3039 3040 3041 3042 3043 3044 3044 3045 3045 3045 3046 3046 3046 3046 3048 3049 3050 3050 3049 3049 3049 3049 3050 3050 3051 3052 3053 3054 3054 3054 3054 3054 3054 3055 3055 3055 3055 3055 3055 3055 3054 3053 3053 3054 3054 3053 3053 3053 3053 3052 3052
3022 3022 3023 3023 3024 3025 3025 3026 3027 3028 3028 3029 3030 3031 3032 3033 3034 3035 3036 3037 3038 3040 3040 3041 3042 3042 3043 3043 3044 3044 3044 3044 3045 3046 3047 3047 3047 3046 3046 3046 3047 3048 3050 3050 3051 3051 3051 3051 3051 3051 3052 3052 3052 3053 3053 3053 3052 3052 3051 3051 3051 3051 3051 3051 3051 3050 3050 3050 3049
3019 3019 3020 3020 3021 3022 3023 3024 3025 3025 3026 3027 3028 3029 3030 3030 3031 3032 3033 3035 3036 3037 3038 3038 3039 3040 3040 3041 3042 3042 3042 3042 3043 3044 3044 3044 3044 3043 3043 3044 3045 3046 3047 3048 3048 3048 3048 3048 3049 3049 3050 3050 3050 3050 3050 3050 3050 3049 3049 3049 3049 3049 3049 3049 3049 3048 3048 3047 3046
3016 3016 3017 3018 3018 3019 3020 3021 3022 3023 3024 3025 3025 3026 3027 3028 3029 3030 3031 3032 3033 3034 3035 3035 3036 3037 3037 3038 3039 3040 3040 3040 3041 3041 3042 3041 3041 3041 3042 3042 3044 3045 3045 3045 3045 3045 3045 3046 3046 3047 3047 3048 3048 3048 3048 3047 3047 3047 3047 3047 3047 3047 3047 3046 3046 3045 3045 3044 3043
3013 3014 3014 3015 3015 3016 3018 3019 3020 3021 3022 3023 3024 3024 3025 3026 3027 3027 3028 3029 3030 3031 3032 3033 3034 3034 3035 3035 3036 3037 3038 3039 3039 3039 3039 3039 3040 3040 3040 3041 3042 3042 3042 3042 3043 3043 3043 3044 3044 3045 3045 3045 3045 3045 3045 3045 3045 3045 3045 3045 3045 3045 3044 3044 3043 3043 3042 3041 3041
3010 3011 3011 3012 3013 3014 3015 3016 3017 3019 3020 3020 3021 3022 3023 3024 3024 3025 3026 3027 3028 3029 3030 3030 3030 3031 3032 3033 3034 3035 3035 3036 3036 3036 3037 3037 3038 3038 3039 3039 3039 3039 3040 3040 3040 3041 3041 3041 3042 3042 3043 3043 3043 3043 3042 3043 3043 3043 3043 3043 3042 3042 3041 3041 3040 3040 3039 3039 3039
3007 3008 3009 3009 3010 3011 3012 3014 3015 3016 3017 3018 3019 3020 3020 3021 3022 3023 3024 3025 3026 3027 3027 3027 3028 3029 3030 3030 3031 3032 3033 3033 3034 3034 3035 3035 3036 3036 3036 3036 3037 3037 3037 3038 3038 3039 3039 3040 3040 3040 3040 3040 3040 3040 3040 3040 3041 3041 3041 3040 3040 3039 3039 3038 3038 3037 3037 3036 3036
3005 3005 3006 3007 3008 3009 3010 3012 3013 3014 3015 3016 3017 3017 3018 3019 3020 3021 3022 3023 3024 3024 3025 3025 3026 3027 3027 3028 3029 3030 3030 3030 3031 3032 3032 3033 3034 3034 3034 3034 3035 3035 3035 3036 3036 3036 3037 3037 3037 3037 3037 3038 3038 3038 3038 3039 3039 3039 3039 3038 3038 3037 3036 3036 3035 3035 3035 3035 3035
3003 3004 3005 3005 3006 3007 3008 3010 3011 3012 3013 3014 3014 3015 3016 3017 3018 3019 3020 3020 3021 3022 3023 3023 3024 3025 3025 3026 3027 3027 3028 3028 3029 3029 3030 3031 3031 3032 3032 3032 3033 3033 3034 3034 3034 3034 3034 3035 3035 3035 3035 3035 3036 3036 3036 3037 3037 3037 3036 3036 3035 3035 3035 3035 3034 3033 3033 3033 3032
3001 3002 3003 3004 3005 3006 3007 3008 3009 3010 3010 3011 3012 3013 3014 3015 3016 3017 3018 3018 3019 3020 3020 3021 3022 3022 3023 3024 3024 3025 3025 3026 3026 3027 3028 3029 3029 3030 3030 3030 3031 3031 3031 3031 3031 3032 3032 3032 3033 3033 3034 3034 3035 3035 3035 3035 3035 3035 3034 3034 3034 3034 3034 3033 3032 3031 3031 3030 3030
3000 3001 3002 3003 3004 3005 3005 3006 3007 3007 3008 3009 3010 3011 3012 3013 3014 3015 3015 3016 3017 3018 3018 3019 3020 3020 3021 3021 3021 3022 3023 3024 3025 3025 3026 3026 3027 3028 3028 3029 3029 3029 3029 3029 3029 3030 3030 3031 3031 3032 3032 3033 3033 3033 3033 3033 3033 3032 3032 3033 3033 3032 3032 3031 3030 3029 3028 3028 3027
2998 2999 3000 3001 3002 3003 3003 3004 3005 3005 3006 3007 3008 3009 3010 3010 3011 3012 3013 3014 3015 3016 3017 3018 3018 3018 3018 3019 3019 3020 3021 3022 3022 3023 3024 3024 3025 3025 3026 3026 3026 3027 3027 3027 3028 3029 3029 3030 3030 3031 3031 3031 3031 3031 3031 3031 3031 3031 3031 3031 3031 3030 3030 3029 3028 3027 3026 3025 3024
2996 2997 2998 2999 3000 3000 3001 3002 3003 3003 3004 3005 3006 3006 3007 3008 3009 3010 3011 3012 3013 3015 3015 3015 3016 3016 3017 3018 3018 3019 3020 3020 3020 3021 3021 3022 3023 3024 3024 3025 3025 3025 3026 3026 3027 3028 3028 3029 3029 3029 3029 3029 3029 3029 3029 3029 3030 3030 3030 3030 3029 3028 3027 3026 3025 3024 3023 3023 3022
2994 2995 2995 2996 2997 2998 2999 3000 3000 3001 3002 3003 3004 3005 3005 3006 3008 3009 3010 3011 3012 3013 3013 3014 3014 3015 3016 3016 3016 3017 3017 3018 3018 3019 3020 3021 3021 3022 3023 3023 3024 3025 3025 3025 3026 3027 3027 3027 3027 3027 3027 3027 3027 3027 3028 3028 3028 3028 3028 3027 3026 3025 3025 3024 3023 3022 3021 3020 3020
2992 2993 2993 2994 2995 2996 2997 2998 2998 2999 3000 3001 3002 3003 3004 3005 3006 3007 3008 3009 3010 3011 3012 3013 3013 3014 3014 3014 3015 3015 3015 3016 3017 3018 3019 3020 3020 3021 3022 3023 3023 3024 3024 3025 3025 3025 3025 3025 3025 3025 3025 3025 3026 3026 3027 3027 3027 3026 3026 3025 3024 3023 3022 3021 3021 3020 3019 3018 3017
2990 2990 2991 2992 2993 2994 2995 2996 2997 2998 2999 3000 3000 3001 3002 3003 3004 3005 3006 3008 3009 3010 3011 3011 3012 3012 3012 3012 3013 3014 3015 3015 3016 3017 3018 3019 3020 3020 3021 3022 3022 3022 3022 3023 3023 3023 3024 3024 3024 3024 3025 3025 3025 3026 3026 3025 3025 3024 3023 3022 3021 3020 3020 3019 3018 3017 3016 3015 3013
2988 2989 2989 2990 2991 2992 2993 2994 2995 2996 2997 2998 2999 3000 3000 3002 3003 3004 3005 3007 3008 3009 3010 3010 3010 3010 3011 3011 3012 3013 3014 3015 3016 3016 3017 3018 3019 3019 3020 3020 3020 3020 3021 3021 3021 3022 3022 3023 3023 3024 3024 3025 3025 3024 3024 3023 3022 3022 3021 3020 3019 3018 3017 3016 3015 3014 3013 3011 3010
2986 2987 2987 2988 2989 2990 2991 2992 2993 2994 2995 2997 2998 2999 3000 3001 3002 3004 3005 3006 3007 3007 3008 3008 3009 3009 3010 3011 3012 3013 3013 3014 3015 3015 3016 3016 3017 3017 3018 3018 3018 3019 3020 3020 3021 3021 3022 3023 3023 3023 3023 3023 3023 3022 3021 3021 3020 3019 3018 3017 3017 3016 3015 3014 3012 3011 3010 3009 3008
2985 2985 2985 2986 2987 2988 2988 2989 2990 2992 2994 2995 2997 2998 3000 3001 3002 3003 3004 3005 3005 3006 3006 3007 3008 3009 3010 3010 3011 3012 3012 3013 3013 3014 3015 3015 3015 3015 3016 3017 3017 3018 3019 3020 3020 3021 3022 3022 3022 3022 3021 3021 3020 3020 3019 3018 3017 3017 3016 3015 3014 3013 3012 3010 3009 3008 3007 3006 3005
2983 2984 2984 2985 2986 2986 2987 2988 2990 2991 2994 2995 2997 2998 3000 3000 3001 3002 3002 3003 3004 3005 3005 3006 3007 3008 3009 3009 3010 3010 3011 3011 3012 3012 3013 3013 3014 3015 3015 3016 3017 3018 3019 3020 3020 3020 3021 3020 3020 3020 3020 3019 3018 3017 3017 3016 3015 3014 3013 3012 3011 3010 3009 3008 3006 3005 3005 3004 3003
2983 2983 2983 2984 2985 2986 2987 2988 2989 2991 2994 2995 2997 2998 2999 2999 3000 3000 3001 3002 3003 3004 3005 3005 3006 3007 3007 3008 3008 3009 3010 3010 3010 3011 3012 3012 3013 3014 3015 3016 3017 3018 3019 3019 3019 3019 3019 3019 3019 3018 3017 3017 3016 3015 3015 3014 3013 3012 3011 3010 3009 3007 3006 3005 3004 3003 3002 3002 3001
2982 2983 2983 2984 2985 2985 2986 2988 2989 2991 2993 2995 2996 2996 2997 2997 2998 2999 3000 3001 3001 3002 3003 3004 3005 3005 3006 3006 3007 3007 3008 3009 3010 3010 3011 3013 3014 3015 3016 3017 3017 3018 3018 3018 3018 3018 3017 3017 3016 3016 3015 3015 3014 3013 3012 3011 3010 3009 3008 3007 3006 3005 3004 3003 3002 3001 3001 3000 3000
2981 2981 2982 2983 2984 2985 2986 2987 2989 2990 2991 2993 2994 2995 2995 2996 2997 2998 2999 3000 3000 3001 3002 3003 3003 3004 3005 3005 3006 3007 3008 3009 3010 3011 3012 3013 3014 3015 3015 3016 3016 3016 3016 3016 3016 3016 3016 3015 3015 3014 3013 3012 3012 3011 3010 3009 3007 3006 3005 3004 3003 3002 3002 3001 3000 3000 2999 2998 2997
2979 2979 2980 2981 2982 2984 2985 2986 2988 2989 2990 2991 2992 2993 2994 2995 2996 2997 2998 2999 2999 3000 3001 3001 3002 3003 3004 3005 3006 3007 3008 3010 3010 3011 3012 3013 3014 3014 3015 3015 3015 3015 3015 3015 3015 3015 3014 3013 3013 3012 3011 3010 3009 3008 3007 3006 3005 3004 3003 3002 3001 3001 3000 2999 2998 2998 2997 2995 2995
2977 2978 2979 2980 2982 2983 2985 2986 2987 2988 2989 2990 2991 2993 2994 2994 2995 2996 2997 2998 2999 2999 3000 3001 3002 3003 3004 3005 3006 3008 3009 3010 3011 3011 3012 3012 3013 3013 3014 3014 3014 3014 3013 3013 3013 3012 3012 3011 3010 3009 3008 3007 3006 3005 3005 3004 3003 3002 3001 3001 3000 2999 2998 2997 2996 2995 2994 2992 2991
2978 2978 2979 2980 2982 2983 2984 2985 2987 2988 2989 2990 2991 2992 2993 2994 2995 2996 2997 2998 2999 3000 3001 3002 3003 3004 3005 3006 3007 3008 3009 3010 3010 3011 3011 3012 3012 3012 3012 3012 3012 3012 3011 3011 3011 3010 3010 3009 3008 3007 3006 3005 3004 3003 3003 3002 3001 3001 3000 2999 2998 2997 2996 2995 2993 2992 2990 2989 2988
2979 2979 2980 2981 2982 2983 2984 2985 2987 2988 2989 2990 2991 2992 2993 2994 2995 2996 2997 2999 3000 3001 3002 3003 3004 3005 3005 3006 3007 3008 3009 3010 3010 3010 3011 3011 3011 3011 3011 3011 3010 3010 3010 3009 3009 3008 3008 3007 3006 3005 3004 3003 3002 3002 3001 3000 3000 2999 2998 2997 2996 2995 2993 2992 2990 2989 2987 2985 2984